Weather Roundup
Issued by NWS

Home | Current Version | Previous Version | Text Only | Print | Product List | Glossary On
Versions: 1 2 3 4 5 6 7 8 9 10 11 12 13 14 15 16 17 18 19 20 21 22 23 24 25 26 27 28 29 30 31 32 33 34 35 36 37 38 39 40 41 42 43 44 45 46 47 48 49 50
000
NZUS93 KARX 040910
HRRWXR

CURRENT HOURLY OBSERVATIONS ACROSS
MUCH OF THE UPPER MISSISSIPPI VALLEY
NATIONAL WEATHER SERVICE LA CROSSE WI
400 AM CDT TUE AUG 04 2015


...SOUTHEAST MINNESOTA...


CITY           SKY/WX    TMP DP  RH WIND       PRES   REMARKS
ROCHESTER      CLEAR     55  51  86 NW6       29.97S
ROCHESTER/MAYO FAIR      60  53  77 CALM      29.96S
WINONA         CLEAR     59  55  88 CALM      29.95R
AUSTIN         CLEAR     55  52  88 CALM      29.96F
ALBERT LEA     CLEAR     54  54 100 CALM      29.97S
DODGE CENTER   CLEAR     55  52  88 N6        29.96F
PRESTON        CLEAR     55  51  86 NW3       29.96S
OWATONNA       CLEAR     52  48  87 CALM      29.96F
FARIBAULT      CLEAR     52  50  93 CALM      29.96S
$$

...ELSEWHERE IN MINNESOTA...


CITY           SKY/WX    TMP DP  RH WIND       PRES   REMARKS
MINNEAPOLIS    CLEAR     61  54  77 W3        29.96S
INTNL FALLS    MOCLDY    45  43  93 CALM      29.92R
DULUTH         PTCLDY    56  50  80 NW8       29.92R
RED WING       CLEAR     55  54  94 CALM      29.94F
REDWOOD FALLS  CLEAR     56  51  84 CALM      29.96F
MANKATO        CLEAR     57  50  77 CALM      29.96S
WORTHINGTON    CLEAR     55  50  82 NE3       29.98F
FAIRMONT       CLEAR     55  48  76 CALM      29.98S
$$

...SOUTHWEST WISCONSIN...


CITY           SKY/WX    TMP DP  RH WIND       PRES   REMARKS
LA CROSSE      CLEAR     58  55  90 N3        29.93S
PRAIRIE DU CHI CLEAR     55  52  90 CALM      29.93F
BOSCOBEL       CLEAR     55  53  93 SW3       29.94S
LONE ROCK      CLEAR     52  50  93 CALM      29.94S
PLATTEVILLE    CLEAR     54  52  93 CALM      29.94S
FORT MC COY    CLEAR     49  47  94 CALM      29.94S
CAMP DOUGLAS   CLEAR     51  51 100 W5        29.92R
VIROQUA        FAIR      55  53  93 CALM      29.94S
WIS DELLS      CLEAR     55  50  82 CALM      29.92S
$$

...ELSEWHERE IN WISCONSIN...


CITY           SKY/WX    TMP DP  RH WIND       PRES   REMARKS
MILWAUKEE      CLEAR     64  51  62 W6        29.91R
MADISON        CLEAR     58  52  80 CALM      29.91S
GREEN BAY      MOCLDY    58  55  90 W3        29.88S
EAU CLAIRE     CLEAR     57  53  86 W3        29.94R
BLACK RVR FLS  FAIR      49  49 100 CALM      29.93S
MEDFORD        CLEAR     54  52  94 W5        29.93R
WAUSAU         CLEAR     61  55  81 NW6       29.89R
WIS RAPIDS     CLOUDY    60  52  74 W3        29.93R
MARSHFIELD     CLEAR     58  51  78 W7        29.92R
RICE LAKE      CLEAR     53  51  94 CALM      29.96R
$$

...NORTHEAST IOWA...


CITY           SKY/WX    TMP DP  RH WIND       PRES   REMARKS
DECORAH        CLEAR     57  54  88 CALM      29.94F
MASON CITY     CLEAR     57  53  86 W6        29.98F
CHARLES CITY   CLEAR     55  55 100 W5        29.97S
OELWEIN        FAIR      55  55 100 CALM      29.97S
$$

...ELSEWHERE IN IOWA...


CITY           SKY/WX    TMP DP  RH WIND       PRES   REMARKS
DES MOINES     MOCLDY    69  59  70 CALM      29.95R
IOWA CITY      CLEAR     60  56  86 S3        29.96S
FORT DODGE     CLEAR     57  55  94 CALM      29.96F
$$

...NORTHERN ILLINOIS...


CITY           SKY/WX    TMP DP  RH WIND       PRES   REMARKS
CHICAGO-OHARE  CLEAR     63  55  75 W6        29.92R
CHICAGO-MIDWAY CLEAR     66  55  67 W3        29.92R
MOLINE         CLEAR     59  55  87 CALM      29.95R
ROCKFORD       CLEAR     59  55  87 CALM      29.95R
PEORIA         CLEAR     63  58  83 CALM      29.96R
$$

NOTE: "FAIR" INDICATES FEW OR NO CLOUDS BELOW 12,000 FEET WITH NO
SIGNIFICANT WEATHER AND/OR OBSTRUCTIONS TO VISIBILITY. WIND
SPEEDS ARE IN MILES-PER-HOUR.



USA.gov is the U.S. government's official web portal to all federal, state and local government web resources and services.